User: anonymous
Location: Stamford Observatory
(41.1241°N, 73.5498°W)
Time: 14:55:56
(UTC-04:00)
Language:

IRS-P3 - Orbit

View from above orbital plane
View from above orbital plane
View from above satellite
View from above satellite

Ground track
Ground track

The orbit data is extracted from the following two-line orbital elements,

1 23827U 96017A   14237.45430174  .00000089  00000-0  59348-4 0   812
2 23827 098.6258 175.1073 0004440 121.6391 015.8524 14.22216280956453
Epoch (UTC): 25 August 2014 10:54:11
Eccentricity: 0.0004440
inclination: 98.6258°
perigee height: 814 km
apogee height: 821 km
right ascension of ascending node: 175.1073°
argument of perigee: 121.6391°
revolutions per day: 14.22216280
mean anomaly at epoch: 15.8524°
orbit number at epoch: 95645

The dashed part of the orbit path shows where the satellite is in the earth's shadow,  

DLR